******************************************************************************* JPL/HORIZONS Lulin (C/2007 N3) 2025-Dec-12 17:56:14 Rec #:90003858 (+COV) Soln.date: 2021-Apr-15_23:31:10 # obs: 3853 (2007-2011) IAU76/J2000 helio. ecliptic osc. elements (au, days, deg., period=Julian yrs): EPOCH= 2454805.5 ! 2008-Dec-05.0000000 (TDB) RMSW= n.a. EC= .9999836220148745 QR= 1.212258533074899 TP= 2454842.1398160802 OM= 338.5351631643972 W= 136.8621908598421 IN= 178.3736105242984 A= 74017.5622203892 MA= 359.9999982066907 ADIST= 148033.9121822453 PER= 20137723.264527 N= 4.9E-8 ANGMOM= .026785039 DAN= 8.96963 DDN= 1.40169 L= 201.6614537 B= 1.1119731 MOID= .21100301 TP= 2009-Jan-10.6398160802 Comet physical (GM= km^3/s^2; RAD= km): GM= n.a. RAD= n.a. M1= 10.2 M2= n.a. k1= 6. k2= n.a. PHCOF= n.a. COMET comments 1: soln ref.= JPL#108, data arc: 2007-07-11 to 2011-01-01 2: k1=6.; ******************************************************************************* ******************************************************************************* Ephemeris / WWW_USER Fri Dec 12 17:56:14 2025 Pasadena, USA / Horizons ******************************************************************************* Target body name: Lulin (C/2007 N3) {source: JPL#108} Center body name: Solar System Barycenter (0) {source: DE441} Center-site name: BODY CENTER ******************************************************************************* Start time : A.D. 1800-Jan-01 00:00:00.0000 TDB Stop time : A.D. 2200-Jan-01 00:00:00.0000 TDB Step-size : 400 calendar years ******************************************************************************* Center geodetic : 0.0, 0.0, 0.0 {E-lon(deg),Lat(deg),Alt(km)} Center cylindric: 0.0, 0.0, 0.0 {E-lon(deg),Dxy(km),Dz(km)} Center radii : (undefined) Keplerian GM : 2.9630927493968080E-04 au^3/d^2 Small perturbers: Yes {source: SB441-N16} Output units : AU-D, deg, Julian Day Number (Tp) Calendar mode : Mixed Julian/Gregorian Output type : GEOMETRIC osculating elements Output format : 10 Reference frame : Ecliptic of J2000.0 ******************************************************************************* Initial IAU76/J2000 heliocentric ecliptic osculating elements (au, days, deg.): EPOCH= 2454805.5 ! 2008-Dec-05.0000000 (TDB) RMSW= n.a. EC= .9999836220148745 QR= 1.212258533074899 TP= 2454842.1398160802 OM= 338.5351631643972 W= 136.8621908598421 IN= 178.3736105242984 Equivalent ICRF heliocentric cartesian coordinates (au, au/d): X=-7.200995725288263E-01 Y=-1.049449954730044E+00 Z=-4.143596029952497E-01 VX=-1.339305670099292E-02 VY= 1.498538947392520E-02 VZ= 6.181833864019251E-03 Comet physical (GM= km^3/s^2; RAD= km): GM= n.a. RAD= n.a. M1= 10.2 M2= n.a. k1= 6. k2= n.a. PHCOF= n.a. ******************************************************************************* JDTDB EC QR IN OM W Tp N MA TA A AD PR ******************************************************************************* $$SOE 2378496.500000000 = A.D. 1800-Jan-01 00:00:00.0000 TDB EC= 9.999623948002803E-01 QR= 1.205945121263777E+00 IN= 1.783682590998662E+02 OM= 3.384979411318723E+02 W = 1.369395993193062E+02 Tp= 2454841.194279276766 N = 1.717417117827621E-07 MA= 3.599868884315189E+02 TA= 1.889666518535856E+02 A = 3.206857376758111E+04 AD= 6.413594159004097E+04 PR= 2.096171024866503E+09 2524593.500000000 = A.D. 2200-Jan-01 00:00:00.0000 TDB EC= 9.989960864044291E-01 QR= 1.215073090948695E+00 IN= 1.783734934668030E+02 OM= 3.385086798072020E+02 W = 1.367831016661680E+02 Tp= 2454841.212264877744 N = 2.342265676427363E-05 MA= 1.633783894142643E+00 TA= 1.709952619580413E+02 A = 1.210336324070867E+03 AD= 2.419457575050785E+03 PR= 1.536973382750947E+07 $$EOE ******************************************************************************* TIME Barycentric Dynamical Time ("TDB" or T_eph) output was requested. This continuous coordinate time is equivalent to the relativistic proper time of a clock at rest in a reference frame co-moving with the solar system barycenter but outside the system's gravity well. It is the independent variable in the solar system relativistic equations of motion. TDB runs at a uniform rate of one SI second per second and is independent of irregularities in Earth's rotation. CALENDAR SYSTEM Mixed calendar mode was active such that calendar dates after AD 1582-Oct-15 (if any) are in the modern Gregorian system. Dates prior to 1582-Oct-5 (if any) are in the Julian calendar system, which is automatically extended for dates prior to its adoption on 45-Jan-1 BC. The Julian calendar is useful for matching historical dates. The Gregorian calendar more accurately corresponds to the Earth's orbital motion and seasons. A "Gregorian-only" calendar mode is available if such physical events are the primary interest. REFERENCE FRAME AND COORDINATES Ecliptic at the standard reference epoch Reference epoch: J2000.0 X-Y plane: adopted Earth orbital plane at the reference epoch Note: IAU76 obliquity of 84381.448 arcseconds wrt ICRF X-Y plane X-axis : ICRF Z-axis : perpendicular to the X-Y plane in the directional (+ or -) sense of Earth's north pole at the reference epoch. Symbol meaning [1 au= 149597870.700 km, 1 day= 86400.0 s]: JDTDB Julian Day Number, Barycentric Dynamical Time EC Eccentricity, e QR Periapsis distance, q (au) IN Inclination w.r.t X-Y plane, i (degrees) OM Longitude of Ascending Node, OMEGA, (degrees) W Argument of Perifocus, w (degrees) Tp Time of periapsis (Julian Day Number) N Mean motion, n (degrees/day) MA Mean anomaly, M (degrees) TA True anomaly, nu (degrees) A Semi-major axis, a (au) AD Apoapsis distance (au) PR Sidereal orbit period (day) ABERRATIONS AND CORRECTIONS Geometric osculating elements have NO corrections or aberrations applied. Computations by ... Solar System Dynamics Group, Horizons On-Line Ephemeris System 4800 Oak Grove Drive, Jet Propulsion Laboratory Pasadena, CA 91109 USA General site: https://ssd.jpl.nasa.gov/ Mailing list: https://ssd.jpl.nasa.gov/email_list.html System news : https://ssd.jpl.nasa.gov/horizons/news.html User Guide : https://ssd.jpl.nasa.gov/horizons/manual.html Connect : browser https://ssd.jpl.nasa.gov/horizons/app.html#/x API https://ssd-api.jpl.nasa.gov/doc/horizons.html command-line telnet ssd.jpl.nasa.gov 6775 e-mail/batch https://ssd.jpl.nasa.gov/ftp/ssd/horizons_batch.txt scripts https://ssd.jpl.nasa.gov/ftp/ssd/SCRIPTS Author : Jon.D.Giorgini@jpl.nasa.gov ******************************************************************************* !$$SOF CENTER = '@0' COMMAND = '2007 N3' OUT_UNITS = 'AU-D' START_TIME = '1800-01-01' STEP_SIZE = '400 years' STOP_TIME = '2200-01-01' TABLE_TYPE = 'ELEMENTS'